Location: Casteau
(50.5142°N, 4.0161°E)
Time: 05:31:55
(UTC+00:00)

CREW DRAGON DEMO-1 DEB - Pass Details

Date: 18 September 2020
Orbit: 361 x 363 km, 51.6° (Epoch: 29 October)

Event Time Altitude Azimuth Distance (km) Brightness Sun altitude
Rises 18:29:09 0° 265° (W) 2,193 8.5 -7.0°
Reaches altitude 10° 18:31:11 10° 268° (W) 1,348 7.2 -7.3°
Maximum altitude 18:34:11 73° 353° (N) 385 2.9 -7.8°
Drops below altitude 10° 18:37:12 10° 79° (E) 1,355 5.1 -8.2°
Enters shadow 18:37:12 10° 79° (E) 1,356 5.1 -8.2°
